User: anonymous   Login
Location: Geyikbay?r?
(36.8756°N, 30.4583°E)
Time: 02:20:32
(UTC+00:00)
Language:

NOSS 2-1 (D) - Orbit

View from above orbital plane
View from above orbital plane
View from above satellite
View from above satellite

Ground track
Ground track

The orbit data is extracted from the following two-line orbital elements,

1 20692U 90050D   24287.49200962  .00008225  00000-0  66078-3 0  9995
2 20692  63.2997  52.8679 0903383  73.0685 296.7297 13.54721792 21511
Epoch (UTC): 13 October 2024 11:48:29
Eccentricity: 0.0903383
inclination: 63.2997°
perigee height: 383 km
apogee height: 1726 km
right ascension of ascending node: 52.8679°
argument of perigee: 73.0685°
revolutions per day: 13.54721792
mean anomaly at epoch: 296.7297°
orbit number at epoch: 2151

The dashed part of the orbit path shows where the satellite is in the earth's shadow,  

DLR